AKDT,Max TemperatureF,Mean TemperatureF,Min TemperatureF,Max Dew PointF,MeanDew PointF,Min DewpointF,Max Humidity, Mean Humidity, Min Humidity, Max Sea Level PressureIn, Mean Sea Level PressureIn, Min Sea Level PressureIn, Max VisibilityMiles, Mean VisibilityMiles, Min VisibilityMiles, Max Wind SpeedMPH, Mean Wind SpeedMPH, Max Gust SpeedMPH,PrecipitationIn, CloudCover, Events, WindDirDegrees
2013-8-1,71,64,57,57,55,53,94,76,56,30.14,30.07,29.96,10,10,10,8,3,,0.00,4,,276
2013-8-2,73,66,59,57,53,49,87,66,44,30.00,29.93,29.79,10,10,10,8,3,,0.00,6,Rain,8
2013-8-3,75,66,60,57,50,44,90,58,35,29.88,29.81,29.76,10,10,10,13,5,23,0.01,7,Rain,244
2013-8-4,70,64,59,55,50,44,87,63,47,29.96,29.93,29.88,10,10,10,7,3,,0.00,8,,348
2013-8-5,69,63,57,56,51,42,93,67,39,29.98,29.96,29.95,10,10,10,8,4,,0.01,8,Rain,317
2013-8-6,69,62,57,55,52,48,90,70,49,29.97,29.94,29.91,10,10,10,7,3,,0.03,6,Rain,290
2013-8-7,62,60,57,60,57,54,100,92,75,29.91,29.82,29.75,10,10,8,5,1,,0.17,8,Rain,252
2013-8-8,66,60,55,57,53,47,100,81,60,29.83,29.77,29.73,10,10,10,15,3,22,0.06,7,Rain,314
2013-8-9,59,54,51,56,54,47,100,96,69,29.82,29.75,29.73,10,8,3,9,4,,0.01,8,Rain,332
2013-8-10,62,57,53,58,55,52,100,92,78,30.01,29.88,29.77,10,9,4,6,1,,0.03,7,Rain,280
2013-8-11,59,56,55,58,56,54,100,99,93,30.03,30.01,29.99,10,9,5,8,2,,0.03,8,Rain,346
2013-8-12,68,60,55,61,58,55,100,93,70,30.05,30.03,30.01,10,8,2,7,3,,0.03,6,Rain,346
2013-8-13,73,65,57,61,57,53,100,84,53,30.03,30.00,29.96,10,10,10,14,3,,0.03,6,,275
2013-8-14,63,59,55,53,51,48,87,77,60,30.03,29.98,29.90,10,10,10,8,4,,0.02,7,,246
2013-8-15,69,60,54,52,50,46,93,72,54,29.90,29.83,29.77,10,10,10,7,2,,0.01,5,,296
2013-8-16,60,56,52,59,53,48,97,88,77,29.77,29.71,29.66,10,10,8,5,1,,0.10,7,Rain,11
2013-8-17,68,60,53,60,56,52,100,92,60,29.65,29.60,29.51,10,10,6,7,2,,0.15,7,Rain,10
2013-8-18,63,60,57,59,57,53,100,92,80,29.65,29.55,29.48,10,10,10,6,1,,0.39,8,Rain,352
2013-8-19,57,55,53,58,55,52,100,95,86,29.76,29.70,29.66,10,8,2,5,1,,0.45,8,Rain,14
2013-8-20,64,58,53,56,53,51,97,88,75,29.84,29.82,29.76,10,9,4,7,1,,0.12,8,Rain,231
2013-8-21,57,55,53,54,53,50,100,90,77,29.86,29.81,29.76,10,9,7,7,2,,0.38,8,Rain,4
2013-8-22,57,54,53,54,53,51,97,93,88,29.76,29.74,29.70,10,9,5,5,1,,0.47,8,Rain,354
2013-8-23,66,60,53,56,54,51,100,86,63,29.68,29.60,29.53,10,8,2,8,2,,0.04,7,Rain,334
2013-8-24,69,60,51,53,48,42,100,74,38,29.70,29.63,29.57,10,8,0,8,3,,0.03,4,Fog,354
2013-8-25,66,54,43,49,43,38,86,63,40,29.74,29.71,29.68,10,10,10,6,1,,0.00,1,,320
2013-8-26,66,56,46,52,47,42,90,71,48,29.76,29.74,29.72,10,10,10,7,2,,0.00,2,,329
2013-8-27,64,58,51,54,49,46,86,76,58,29.80,29.77,29.73,10,10,10,7,1,,0.02,8,Rain,212
2013-8-28,66,58,53,54,50,46,100,77,58,29.73,29.66,29.58,10,9,4,8,4,,0.45,7,Rain,12
2013-8-29,57,54,51,55,52,50,97,92,86,29.87,29.70,29.55,10,10,10,8,5,,0.15,8,Rain,358
2013-8-30,62,58,53,54,53,52,100,90,75,29.96,29.93,29.88,10,8,1,7,2,,0.02,7,Rain,228
2013-8-31,59,54,51,54,52,49,97,90,78,29.94,29.88,29.83,10,9,5,8,1,,0.10,8,Rain,48